Weather History for LKPR - February, 2013

Change the Weather History Date:

Thursday, February 28, 2013

  Actual Average (WUND) Record (WUND)
Temperature  
Mean Temperature 34 °F -  
Max Temperature 36 °F 45 °F - (-1)
Min Temperature 31 °F 30 °F - (-1)
Degree Days  
Heating Degree Days 32    
Moisture  
Dew Point 31 °F    
Average Humidity 90    
Maximum Humidity 100    
Minimum Humidity 73    
Precipitation  
Precipitation 0.00 in 0.04 in - ()
Sea Level Pressure  
Sea Level Pressure 30.29 in    
Wind  
Wind Speed 3 mph ()    
Max Wind Speed 7 mph    
Max Gust Speed -    
Visibility 3.4 miles    
Events Fog    
Averages and records for this station are not official NWS values.
T = Trace of Precipitation, MM = Missing Value Source: Averaged Metar Reports

Daily Weather History Graph

Daily Weather History Graph

Search for Another Location

Airport or City:

Trip Planner

Search our weather history database for the weather conditions in past years. The results will help you decide how hot, cold, wet, or windy it might be!

Date:

Astronomy

Feb. 28, 2013 Rise Set
Actual Time 6:48 AM CET 5:43 PM CET
Civil Twilight 6:15 AM CET 6:16 PM CET
Nautical Twilight 5:38 AM CET 6:53 PM CET
Astronomical Twilight 5:00 AM CET 7:31 PM CET
Moon 9:16 PM CET (2/28) 7:26 AM CET (2/28)
Length of Visible Light 12h 00m
Length of Day
10h 55m
Waning Gibbous, 92% of the Moon is Illuminated
Feb 28
Waning Gibbous
Mar 4
Last Quarter
Mar 11
New
Mar 19
First Quarter
Mar 27
Full

Hourly Weather History & Observations

Time (CET) Temp. Windchill Dew Point Humidity Pressure Visibility Wind Dir Wind Speed Gust Speed Precip Events Conditions
12:00 AM 32.0 °F 26.4 °F 32.0 °F 100% 30.36 in 2.5 mi North 5.8 mph - N/A   Overcast
12:30 AM 32.0 °F 26.4 °F 30.2 °F 93% 30.36 in 2.5 mi North 5.8 mph - N/A   Overcast
1:00 AM 32 °F - 31 °F 95% 30.44 in 2 mi NNW 2.2 mph - -   Mist
1:00 AM 32.0 °F 27.5 °F 30.2 °F 93% 30.36 in 2.5 mi North 4.6 mph - N/A   Overcast
1:30 AM 32.0 °F 28.7 °F 30.2 °F 93% 30.36 in - North 3.5 mph - N/A   Overcast
1:51 AM 32.0 °F 27.5 °F 30.2 °F 93% 30.36 in 1.7 mi North 4.6 mph - N/A   Overcast
2:00 AM 32.0 °F 27.5 °F 30.2 °F 93% 30.36 in 1.6 mi North 4.6 mph - N/A   Overcast
2:30 AM 32.0 °F 28.7 °F 30.2 °F 93% 30.36 in 1.1 mi North 3.5 mph - N/A Fog Overcast
3:00 AM 32.0 °F - 30.2 °F 93% 30.36 in 1.0 mi Variable 1.2 mph - N/A Fog Overcast
3:14 AM 32.0 °F 28.7 °F 30.2 °F 93% 30.33 in 0.6 mi North 3.5 mph - N/A Fog Light Freezing Fog
3:30 AM 32.0 °F 28.7 °F 30.2 °F 93% 30.33 in 0.4 mi NNW 3.5 mph - N/A Fog Light Freezing Fog
4:00 AM 32.0 °F - 30.2 °F 93% 30.33 in 0.6 mi Variable 1.2 mph - N/A Fog Light Freezing Fog
4:30 AM 32.0 °F 27.5 °F 30.2 °F 93% 30.33 in 0.7 mi North 4.6 mph - N/A   Overcast
4:36 AM 32.0 °F 28.7 °F 30.2 °F 93% 30.33 in 0.6 mi North 3.5 mph - N/A Fog Light Freezing Fog
5:00 AM 32.0 °F - 30.2 °F 93% 30.33 in 0.7 mi North 2.3 mph - N/A   Overcast
5:17 AM 32.0 °F - 30.2 °F 93% 30.33 in 1.0 mi NNW 2.3 mph - N/A   Overcast
5:30 AM 32.0 °F - 30.2 °F 93% 30.33 in 1.0 mi NNW 2.3 mph - N/A   Overcast
5:37 AM 32.0 °F - 30.2 °F 93% 30.33 in 1.0 mi North 2.3 mph - N/A   Overcast
5:44 AM 32.0 °F - 30.2 °F 93% 30.33 in 1.2 mi North 2.3 mph - N/A   Overcast
6:00 AM 32.0 °F 28.7 °F 30.2 °F 93% 30.33 in 1.2 mi North 3.5 mph - N/A   Overcast
6:30 AM 32.0 °F 28.7 °F 32.0 °F 100% 30.30 in 1.5 mi NNW 3.5 mph - N/A   Overcast
7:00 AM 32 °F - 31 °F 95% 30.39 in 1 mi North 4.5 mph - -   Mist
7:00 AM 32.0 °F - 32.0 °F 100% 30.30 in 1.1 mi North 2.3 mph - N/A   Overcast
7:30 AM 32.0 °F - 32.0 °F 100% 30.30 in 1.4 mi Variable 1.2 mph - N/A   Overcast
8:00 AM 32.0 °F 28.7 °F 32.0 °F 100% 30.33 in 1.1 mi North 3.5 mph - N/A   Overcast
8:30 AM 32.0 °F - 32.0 °F 100% 30.33 in 1.2 mi North 2.3 mph - N/A   Overcast
9:00 AM 32.0 °F - 32.0 °F 100% 30.33 in 1.4 mi NNE 2.3 mph - N/A   Overcast
9:30 AM 33.8 °F - 32.0 °F 93% 30.33 in 2.2 mi NNE 2.3 mph - N/A   Overcast
10:00 AM 33.8 °F - 33.8 °F 100% 30.30 in 2.5 mi NNE 2.3 mph - N/A   Overcast
10:30 AM 33.8 °F - 32.0 °F 93% 30.30 in 3.1 mi NE 2.3 mph - N/A   Overcast
11:00 AM 35.6 °F 32.8 °F 32.0 °F 87% 30.30 in 3.1 mi NNE 3.5 mph - N/A   Overcast
11:30 AM 35.6 °F 32.8 °F 32.0 °F 87% 30.30 in 3.1 mi NNE 3.5 mph - N/A   Overcast
12:00 PM 35.6 °F - 32.0 °F 87% 30.30 in 3.7 mi NNE 2.3 mph - N/A   Overcast
12:30 PM 35.6 °F 32.8 °F 30.2 °F 81% 30.27 in 5.0 mi North 3.5 mph - N/A   Overcast
1:00 PM 36 °F - 30 °F 73% 30.34 in 5 mi North 4.5 mph - -   Mist
1:00 PM 35.6 °F 32.8 °F 30.2 °F 81% 30.27 in 5.0 mi North 3.5 mph - N/A   Overcast
1:30 PM 35.6 °F 30.7 °F 30.2 °F 81% 30.27 in 5.0 mi NNW 5.8 mph - N/A   Overcast
2:00 PM 35.6 °F 31.7 °F 28.4 °F 75% 30.27 in 5.6 mi NNW 4.6 mph - N/A   Overcast
2:30 PM 35.6 °F 32.8 °F 30.2 °F 81% 30.24 in 5.6 mi North 3.5 mph - N/A   Overcast
3:00 PM 35.6 °F 32.8 °F 30.2 °F 81% 30.24 in 5.6 mi NNW 3.5 mph - N/A   Overcast
3:30 PM 35.6 °F 32.8 °F 30.2 °F 81% 30.24 in 6.2 mi NNW 3.5 mph - N/A   Overcast
4:00 PM 35.6 °F 32.8 °F 30.2 °F 81% 30.24 in 6.2 mi NNW 3.5 mph - N/A   Overcast
4:30 PM 35.6 °F - 30.2 °F 81% 30.21 in 5.6 mi North 2.3 mph - N/A   Overcast
5:00 PM 35.6 °F 31.7 °F 30.2 °F 81% 30.21 in 5.6 mi NNW 4.6 mph - N/A   Overcast
5:30 PM 33.8 °F - 30.2 °F 87% 30.21 in 5.0 mi NNW 2.3 mph - N/A   Overcast
6:00 PM 33.8 °F - 30.2 °F 87% 30.21 in 5.6 mi NNW 2.3 mph - N/A   Overcast
6:30 PM 33.8 °F - 30.2 °F 87% 30.21 in 5.6 mi WNW 2.3 mph - N/A   Overcast
7:00 PM 34 °F - 30 °F 79% 30.28 in 6 mi SW 2.2 mph - -   Overcast
7:00 PM 33.8 °F 30.8 °F 30.2 °F 87% 30.21 in 6.2 mi West 3.5 mph - N/A   Overcast
7:30 PM 33.8 °F 29.6 °F 30.2 °F 87% 30.21 in 6.2 mi West 4.6 mph - N/A   Overcast
8:00 PM 33.8 °F 30.8 °F 30.2 °F 87% 30.21 in 6.2 mi West 3.5 mph - N/A   Overcast
8:30 PM 33.8 °F 30.8 °F 30.2 °F 87% 30.18 in 6.2 mi WNW 3.5 mph - N/A   Overcast
9:00 PM 33.8 °F 29.6 °F 30.2 °F 87% 30.18 in 6.2 mi West 4.6 mph - N/A   Overcast
9:30 PM 33.8 °F 29.6 °F 30.2 °F 87% 30.18 in 6.2 mi West 4.6 mph - N/A   Overcast
10:00 PM 33.8 °F 28.6 °F 30.2 °F 87% 30.18 in 6.2 mi West 5.8 mph - N/A   Overcast
10:30 PM 33.8 °F 27.7 °F 30.2 °F 87% 30.18 in 6.2 mi West 6.9 mph - N/A   Overcast
11:00 PM 33.8 °F 27.7 °F 30.2 °F 87% 30.18 in 6.2 mi West 6.9 mph - N/A   Overcast
11:30 PM 33.8 °F 27.7 °F 30.2 °F 87% 30.18 in 6.2 mi West 6.9 mph - N/A   Overcast